TimeEST,TemperatureF,Dew PointF,Humidity,Sea Level PressureIn,VisibilityMPH,Wind Direction,Wind SpeedMPH,Gust SpeedMPH,PrecipitationIn,Events,Conditions,WindDirDegrees,DateUTC
12:19 AM,55.4,55.4,100,30.08,4.0,Calm,Calm,-,N/A,,Overcast,0,2012-12-03 05:19:00
12:42 AM,55.4,55.4,100,30.08,1.8,Calm,Calm,-,N/A,,Overcast,0,2012-12-03 05:42:00
12:54 AM,55.0,55.0,100,30.07,0.5,South,3.5,-,N/A,Fog,Fog,190,2012-12-03 05:54:00
1:07 AM,55.4,55.4,100,30.07,0.2,Calm,Calm,-,N/A,Fog,Fog,0,2012-12-03 06:07:00
1:28 AM,55.4,55.4,100,30.07,0.5,SW,4.6,-,N/A,Fog,Fog,220,2012-12-03 06:28:00
1:54 AM,57.0,55.9,96,30.06,1.2,South,4.6,-,N/A,,Overcast,190,2012-12-03 06:54:00
2:54 AM,57.0,57.0,100,30.07,2.0,Calm,Calm,-,N/A,,Overcast,0,2012-12-03 07:54:00
3:37 AM,57.2,55.4,94,30.07,2.5,South,3.5,-,N/A,,Overcast,170,2012-12-03 08:37:00
3:54 AM,57.0,57.0,100,30.06,3.0,South,4.6,-,N/A,,Overcast,170,2012-12-03 08:54:00
4:11 AM,57.2,57.2,100,30.06,3.0,South,4.6,-,N/A,,Overcast,190,2012-12-03 09:11:00
4:52 AM,57.2,57.2,100,30.05,3.0,South,4.6,-,N/A,,Overcast,170,2012-12-03 09:52:00
4:54 AM,57.9,57.0,97,30.04,3.0,South,4.6,-,N/A,,Overcast,170,2012-12-03 09:54:00
5:51 AM,57.2,57.2,100,30.04,2.5,South,4.6,-,N/A,,Overcast,180,2012-12-03 10:51:00
5:54 AM,57.9,57.9,100,30.04,2.5,South,4.6,-,N/A,,Overcast,190,2012-12-03 10:54:00
6:02 AM,59.0,57.2,94,30.04,2.5,South,4.6,-,N/A,,Overcast,180,2012-12-03 11:02:00
6:54 AM,59.0,57.9,96,30.04,2.0,South,6.9,-,N/A,,Overcast,190,2012-12-03 11:54:00
7:36 AM,59.0,59.0,100,30.04,2.0,South,8.1,-,0.01,,Overcast,190,2012-12-03 12:36:00
7:54 AM,60.1,59.0,96,30.04,2.5,SSW,10.4,-,0.01,,Overcast,200,2012-12-03 12:54:00
8:11 AM,60.8,57.2,88,30.03,2.5,SSW,9.2,-,N/A,,Overcast,200,2012-12-03 13:11:00
8:54 AM,61.0,57.9,90,30.03,4.0,South,6.9,-,N/A,,Overcast,190,2012-12-03 13:54:00
10:54 AM,63.0,59.0,87,30.01,10.0,SSW,9.2,-,N/A,,Overcast,210,2012-12-03 15:54:00
11:37 AM,64.4,59.0,83,30.01,10.0,SSW,11.5,18.4,N/A,,Overcast,210,2012-12-03 16:37:00
11:54 AM,64.9,59.0,81,29.99,10.0,SW,16.1,24.2,N/A,,Overcast,220,2012-12-03 16:54:00
12:54 PM,66.0,57.9,75,29.97,10.0,SSW,13.8,19.6,N/A,,Mostly Cloudy,210,2012-12-03 17:54:00
1:54 PM,66.9,57.9,73,29.95,10.0,SSW,8.1,25.3,N/A,,Overcast,210,2012-12-03 18:54:00
2:37 PM,68.0,57.2,68,29.94,10.0,SSW,12.7,20.7,N/A,,Mostly Cloudy,210,2012-12-03 19:37:00
2:54 PM,68.0,57.9,70,29.93,10.0,SSW,10.4,18.4,N/A,,Scattered Clouds,210,2012-12-03 19:54:00
3:54 PM,70.0,57.0,63,29.93,10.0,SW,17.3,31.1,N/A,,Clear,220,2012-12-03 20:54:00
4:54 PM,69.1,55.9,63,29.91,10.0,SSW,16.1,27.6,N/A,,Clear,210,2012-12-03 21:54:00
5:54 PM,66.0,55.0,68,29.91,10.0,South,15.0,21.9,N/A,,Clear,190,2012-12-03 22:54:00
6:54 PM,64.9,54.0,68,29.92,10.0,SSW,13.8,23.0,N/A,,Clear,200,2012-12-03 23:54:00
7:54 PM,64.0,55.0,73,29.96,10.0,SW,10.4,23.0,N/A,,Scattered Clouds,220,2012-12-04 00:54:00
8:54 PM,64.0,55.0,73,29.95,10.0,SW,13.8,34.5,N/A,,Mostly Cloudy,220,2012-12-04 01:54:00
9:54 PM,63.0,55.0,75,29.94,10.0,SSW,12.7,25.3,N/A,,Scattered Clouds,210,2012-12-04 02:54:00
10:54 PM,64.0,55.0,73,29.95,10.0,SW,10.4,21.9,N/A,,Partly Cloudy,220,2012-12-04 03:54:00
11:54 PM,63.0,55.0,75,29.95,10.0,SSW,8.1,-,N/A,,Overcast,200,2012-12-04 04:54:00